Zurück zum Katalog

CZ-4 DEB

AktivSSO
NORAD 37614·DEBRIS·🇨🇳 China

Gestartet Sep 3, 1990 von Taiyuan Satellite Launch Center

Loading…

Nächste Überflüge (nächste 24 Stunden)

TLE

AktuellSource: Space-Track

Epoche: Sep 13, 2026, 04:33 UTC

1 37614U 90081DA  26256.19011753  .00000319  00000-0  21594-3 0  9994
2 37614  99.0007 240.9038 0074526   5.7234  55.0562 14.06086145128356

Verfolge CZ-4 DEB in Echtzeit mit AllMySat

Download on the App Store